Regional Weather Roundup
Issued by NWS

Home | Current Version | Previous Version | Text Only | Print | Product List | Glossary On
Versions: 1 2 3 4 5 6 7 8 9 10 11 12 13 14 15 16 17 18 19 20 21 22 23 24 25 26 27
000
ASUS45 KBOU 280007
RWRCO

WEATHER ROUNDUP FOR COLORADO
NATIONAL WEATHER SERVICE DENVER/BOULDER CO
600 PM MDT TUE JUN 27 2017

NOTE: "FAIR" INDICATES FEW OR NO CLOUDS BELOW 12000 FEET WITH NO
SIGNIFICANT WEATHER AND/OR OBSTRUCTIONS TO VISIBILITY.

COZ001>005-013-030-031-280100-
...NORTHWEST COLORADO...

CITY           SKY/WX    TMP DP  RH WIND       PRES   REMARKS
CRAIG          FAIR      83  30  14 NW14      29.93F
HAYDEN         FAIR      82  34  17 NW15      29.97S
MEEKER         FAIR      86  26  11 NW8       29.94F
RABBIT EARS PA FAIR      63  32  31 W12G21    30.29R
STEAMBOAT SPGS FAIR      77  37  23 NW9       29.99F
WALDEN         FAIR      68  32  26 N10G16    30.10S
$$

COZ006>008-011-280100-
...WEST CENTRAL VALLEYS...

CITY           SKY/WX    TMP DP  RH WIND       PRES   REMARKS
GRAND JUNCTION FAIR      96  16   5 W12       29.81F
MONTROSE       FAIR      91  20   7 W14G24    29.92F
EAGLE          MOSUNNY   86  18   8 SW18G29   29.96F
RIFLE          FAIR      94   8   4 SW18G25   29.86F
DELTA          FAIR      98  12   4 W16G24    29.85F
NUCLA          FAIR      91  14   6 SW10G23   29.97F
$$

COZ017>023-064>068-280100-
...SOUTHWEST COLORADO...

CITY           SKY/WX    TMP DP  RH WIND       PRES   REMARKS
DURANGO        FAIR      86  14   7 W18G25    30.02F
CORTEZ         FAIR      91   7   4 SW17G25   29.97F
PAGOSA SPRINGS FAIR      83  17   8 W12G23    30.12F
TELLURIDE      FAIR      75  14   9 W18G24    30.26F
WOLF CREEK PAS FAIR      59  25  27 SW16G29   30.50F
$$

COZ009-010-012-014-032>034-037-058>063-280100-
...CENTRAL COLORADO...

CITY           SKY/WX    TMP DP  RH WIND       PRES   REMARKS
ASPEN          FAIR      78  21  12 NW9G22    30.08F
BUENA VISTA    FAIR      80  20  10 W9G31     30.07S
COPPER MTN     FAIR      64  18  16 W13G33    30.43S
BERTHOUD PASS  FAIR      54  39  58 NW22      30.44F
COTTONWOOD PAS FAIR      77   9   7 W12G23    30.24S
GUNNISON       FAIR      80  25  13 W16G29    30.09F
KREMMLING      FAIR      82  12   7 W12G20    30.02S
LEADVILLE      FAIR      69  14  12 W8        30.23F
MONARCH PASS   FAIR      63  19  19 W40G53    30.51F
SALIDA         FAIR      86  19   8 W17G30    30.10F
SUNLIGHT       FAIR      66  18  15 SW14G32   30.34F
WILKERSON PASS FAIR      66  12  12 SW16G25   30.35F
$$

COZ069>075-280100-
...SAN LUIS VALLEY/SANGRE DE CRISTO MOUNTAINS...

CITY           SKY/WX    TMP DP  RH WIND       PRES   REMARKS
ALAMOSA        FAIR      83  23  11 W24G31    30.06F
DEL NORTE      FAIR      82  28  13 SW17G31   30.09F
LA VETA PASS   FAIR      68  27  21 MISG      30.35F
SAGUACHE       FAIR      77  34  20 SW7       30.09F
$$

COZ035-036-038>040-280100-
...NORTHERN COLORADO FRONT RANGE...

CITY           SKY/WX    TMP DP  RH WIND       PRES   REMARKS
DENVER INTL AP PTSUNNY   92  25   9 NW9G24    29.78F
DMNS CITY PARK   N/A     94  33  12 W6        29.78R
AURORA         PTSUNNY   89  30  12 NE3       29.81S
FRONT RANGE AP FAIR      93  28  10 CALM      29.80F
ERIE MUNI ARPT FAIR      92  23   8 W20G28    29.76S
BOULDER MUN AP FAIR      93  28  10 W23G30    29.78S
CENTENNIAL     PTSUNNY   88  27  11 NE3       29.82S
BROOMFIELD     FAIR      91  28  10 W20G25    29.81S
FORT COLLINS   FAIR      93  35  13 NW15G29   29.77S
LONGMONT       FAIR      94  31  10 W14       29.77F
$$

COZ041-046-047-076>085-087-088-280100-
...PIKES PEAK/PALMER DIVIDE AND SOUTHERN FOOTHILLS...

CITY           SKY/WX    TMP DP  RH WIND       PRES   REMARKS
COLO. SPRINGS  LGT RAIN  86  41  20 S8        29.86F
A. F. ACADEMY  FAIR      88  34  14 SW13G21   29.86F
SCHRIEVER AFB  LGT RAIN  81  45  28 SW35      29.89S
CHEYENNE MTN   FAIR      81  33  17 SE14      29.87F
ELLICOTT       FAIR     N/A N/A N/A SW21      29.84F
FALCON           N/A     88  26  10 SW15G22   29.92F
FORT CARSON    FAIR      90  33  13 W14G26    29.83S
LIMON          FAIR      83  39  21 VRB3      29.82F
MONUMENT HILL  FAIR      81  32  17 NE14G20   29.94F
CANON CITY     SUNNY     97  36  11 SW16G29   29.80F
WALSENBURG     FAIR      91  32  12 SW17G32   29.88S
TRINIDAD       FAIR      85  45  24 S14       29.88F
$$

COZ042>045-048>051-090-091-280100-
...NORTHEAST COLORADO...

CITY           SKY/WX    TMP DP  RH WIND       PRES   REMARKS
GREELEY ARPT   FAIR      92  43  18 NW12      29.74R
AKRON          FAIR      85  38  18 W16G23    29.77R
BURLINGTON     LGT RAIN  85  50  29 VRB3      29.73F
WRAY           FAIR      88  39  18 SW16G22   29.69S
YUMA           FAIR      82  43  24 S17G23    29.69F
STERLING       PTSUNNY   86  43  22 CALM      29.69R
HOLYOKE        NOT AVBL
FORT MORGAN    FAIR      88  34  14 N9        29.75R
$$

COZ086-089-092>099-280100-
...SOUTHEAST COLORADO...

CITY           SKY/WX    TMP DP  RH WIND       PRES   REMARKS
PUEBLO         FAIR      97  34  11 S10       29.73F
LA JUNTA       FAIR      96  40  14 MISG      29.73F
LAMAR          FAIR      95  48  20 S25G33    29.69F
SPRINGFIELD      N/A     87  50  27 S18G29    29.81F
$$




USA.gov is the U.S. government's official web portal to all federal, state and local government web resources and services.